Dewpoint
49 49 50 49 47 48 46 47 49 48 46 45 46 48 46 40 37 37 36 38 37 42 32 8 8 9 13 17 24 21 13 16 20 19 14 12 9 7 7 4 5 11 14 16 33
51 50 50 49 48 48 47 46 48 48 46 46 47 47 45 43 26 24 37 36 39 39 14 6 4 5 8 12 14 11 10 13 19 17 16 12 7 6 4 4 5 12 23 31 31
50 49 49 49 48 49 46 45 47 47 46 46 47 46 43 38 11 16 33 34 38 32 18 12 11 3 6 11 12 12 6 12 14 16 15 10 5 7 3 1 4 6 18 30 28
48 48 49 47 47 46 47 46 47 47 46 46 46 44 41 29 -14 26 32 31 33 22 14 11 5 4 6 6 10 9 15 18 17 14 11 8 9 6 5 1 8 10 24 28 26
47 46 47 47 46 48 47 47 47 46 46 45 45 43 27 8 12 26 27 24 22 18 15 8 3 6 4 6 7 9 11 12 12 12 12 12 8 8 8 8 12 16 25 26 25
45 46 47 47 47 48 48 47 47 46 45 45 43 36 21 4 24 22 17 19 19 19 17 12 7 10 8 8 6 10 10 10 12 13 13 5 7 9 8 12 13 19 21 23 22
46 46 47 46 48 47 48 46 47 46 45 45 42 23 17 14 18 16 17 19 20 19 15 18 15 8 9 7 13 12 5 8 11 11 11 10 4 4 12 13 13 17 19 21 21
44 46 47 47 48 47 46 44 47 45 45 45 40 18 12 20 24 14 18 17 21 21 20 18 16 14 12 13 14 11 10 2 12 12 15 12 8 9 14 12 12 14 16 18 21
44 44 46 47 47 46 45 44 45 44 45 42 25 15 8 18 12 15 17 15 18 19 24 24 20 14 14 7 6 10 4 7 11 15 13 10 9 12 14 12 11 13 13 15 18
46 43 44 47 47 45 46 46 45 40 33 28 20 10 13 11 14 16 16 17 14 14 9 18 16 10 15 13 4 4 8 10 9 11 14 11 9 11 13 13 12 12 13 14 16
46 42 44 45 47 45 46 38 22 21 21 12 13 13 15 15 16 13 15 12 13 10 1 17 9 6 5 16 17 10 10 9 7 8 9 9 10 10 12 13 13 14 13 14 15
45 44 46 44 47 47 40 25 17 17 13 18 16 15 15 15 7 11 15 5 5 3 13 8 6 17 11 7 9 8 7 5 6 8 8 8 10 12 12 12 13 13 14 14 15
46 46 46 45 49 44 41 36 31 25 12 18 16 14 13 15 13 10 13 11 6 6 9 7 12 11 9 8 8 6 8 7 9 8 9 10 15 16 16 13 13 14 16 16 14
47 46 46 49 43 43 39 39 30 22 12 14 13 14 13 16 10 16 15 9 9 7 10 9 12 9 9 8 10 9 9 8 7 11 13 10 12 16 15 14 13 13 13 15 16
47 46 48 45 38 39 34 32 27 23 8 18 14 16 15 11 11 10 15 9 6 9 7 3 9 8 8 10 12 10 10 7 7 8 12 11 14 15 14 15 16 16 12 13 16
46 47 45 35 38 34 31 29 23 21 14 15 13 11 9 13 12 11 10 13 14 9 9 9 11 12 14 14 13 13 12 14 14 12 14 14 14 15 15 15 14 11 13 14 15
47 48 43 34 29 31 30 23 14 18 17 14 12 10 9 10 11 9 6 6 5 1 1 8 8 13 13 10 11 10 14 10 11 11 10 11 9 14 16 16 14 10 11 13 16
48 46 39 33 31 30 26 18 15 20 18 14 13 10 9 10 11 10 7 3 7 10 6 3 4 11 14 11 9 7 14 7 3 8 10 11 12 13 16 16 18 18 18 16 15
48 43 42 38 31 28 19 12 15 19 17 12 11 10 8 9 10 9 8 8 8 9 6 5 8 15 17 16 14 8 9 14 12 8 12 13 13 14 16 15 15 15 17 17 17
41 40 38 40 31 23 15 13 14 21 15 13 14 13 11 9 9 9 8 12 8 10 16 8 7 13 14 15 13 11 13 11 13 8 7 9 10 11 11 13 15 15 15 16 18
39 35 34 35 26 16 11 11 15 21 16 13 14 12 13 10 10 9 9 11 12 13 16 12 10 12 13 12 10 10 10 10 12 12 7 4 6 13 13 13 10 13 17 18 18
37 22 34 31 23 20 13 14 16 17 18 16 18 16 13 11 9 9 8 10 14 14 7 15 11 8 10 11 11 11 10 10 7 5 9 8 7 16 12 13 16 14 18 20 19
33 29 33 30 19 19 20 18 18 20 19 18 17 18 16 12 10 10 11 14 15 11 9 15 10 7 10 14 13 11 11 9 9 10 7 6 5 14 14 14 17 17 19 20 20
31 24 30 29 27 19 18 17 16 20 21 20 19 20 17 14 13 12 11 16 17 12 21 18 10 5 2 5 11 10 11 11 10 8 8 8 7 11 11 11 13 15 18 18 18
32 26 28 25 26 24 21 18 15 14 21 24 21 18 17 15 15 13 14 17 20 20 23 13 7 10 10 12 11 10 9 11 11 11 9 8 10 12 13 13 13 16 18 16 16
32 29 28 25 26 25 24 21 18 16 19 20 21 22 19 14 14 13 15 17 13 20 20 20 14 15 18 15 13 14 12 11 12 12 13 12 13 16 17 18 17 17 17 18 17
39 34 28 26 25 25 22 20 18 18 19 16 19 20 21 20 21 22 23 25 21 18 19 19 16 16 14 16 15 14 15 15 14 13 13 12 13 15 15 17 18 19 19 18 20
Wind_Speed
5 5 8 8 6 4 2 4 4 5 4 3 5 8 11 11 6 6 9 8 9 13 9 1 7 6 6 6 6 2 6 9 11 14 8 9 6 1 1 7 2 1 2 0 18
6 7 6 6 5 5 3 4 3 3 2 2 4 7 9 5 6 12 6 14 13 9 3 5 4 5 6 4 5 4 4 7 8 7 10 14 6 10 4 4 5 3 1 8 15
5 4 5 6 5 4 3 3 2 2 1 3 5 7 10 2 2 3 14 16 12 3 3 3 5 4 6 5 7 4 4 6 3 2 10 14 8 4 9 8 10 12 12 15 12
4 3 3 4 1 4 3 1 1 0 2 5 7 9 8 1 4 3 18 16 9 0 4 4 4 4 5 5 3 8 5 3 4 5 7 13 11 5 11 3 0 8 19 17 17
2 2 1 2 2 2 4 3 1 1 3 5 8 10 2 5 2 7 17 12 3 4 5 4 4 5 7 7 4 10 5 6 7 10 8 8 4 4 11 11 1 10 17 19 16
2 4 3 5 5 3 4 3 1 0 3 5 8 8 1 4 5 9 13 8 9 5 5 5 5 9 11 6 6 5 12 9 5 6 4 3 2 0 3 8 8 17 19 17 17
1 4 3 4 4 5 5 3 2 0 3 5 8 3 6 4 4 9 8 5 6 3 6 3 6 5 7 9 8 7 10 6 6 2 3 2 6 11 3 11 13 17 16 16 16
3 4 5 6 3 6 3 3 1 0 2 3 6 3 3 3 4 7 7 4 8 7 9 8 13 14 6 12 5 5 4 6 1 1 1 1 4 2 8 16 16 17 16 17 17
3 4 7 7 3 6 5 4 2 2 2 4 2 2 2 5 2 4 6 4 4 5 7 5 6 7 3 9 5 4 5 4 3 0 0 4 5 2 8 14 17 18 19 19 17
5 5 5 8 7 8 7 5 2 1 2 1 2 1 1 2 2 3 4 4 5 2 2 5 6 5 4 5 11 9 6 3 4 1 2 5 19 10 9 13 18 19 21 22 21
6 5 6 9 9 10 8 5 4 2 7 1 1 3 3 1 2 6 4 2 2 8 3 4 4 10 10 4 4 9 7 5 2 1 2 9 19 21 14 14 20 22 22 23 26
8 6 7 9 10 11 4 2 2 2 5 4 4 4 2 1 3 6 7 3 3 5 1 3 5 2 9 7 8 6 6 4 1 1 2 5 23 23 19 20 26 29 27 25 17
9 9 10 12 12 6 2 3 1 2 4 1 1 2 2 1 3 2 5 2 5 6 3 6 5 5 5 7 8 3 4 6 2 1 2 9 13 10 4 9 14 18 19 21 27
9 10 14 17 7 5 4 1 2 2 1 4 3 1 2 4 3 2 4 2 3 7 6 5 3 5 7 5 3 8 2 6 4 1 6 5 10 7 5 11 14 16 20 20 22
4 12 16 13 10 9 2 3 2 1 4 4 3 1 3 4 4 3 3 2 6 7 5 7 8 7 5 4 2 5 5 6 4 3 2 1 6 8 5 12 19 14 19 21 21
4 13 17 7 3 4 5 4 2 2 8 5 3 4 5 3 2 1 2 6 4 6 11 4 2 3 4 6 3 17 9 8 6 3 8 6 9 6 10 13 10 5 9 17 18
6 14 11 5 5 5 5 5 4 5 2 5 4 5 4 4 3 2 4 7 8 8 7 3 2 2 5 10 3 2 7 2 3 6 13 2 5 17 14 14 9 6 2 7 14
9 15 5 2 5 6 3 4 6 3 5 3 5 9 6 8 2 3 6 8 7 4 6 13 7 8 1 1 7 7 3 8 9 9 5 2 12 10 13 13 16 13 12 6 13
14 5 4 3 6 3 4 6 10 7 9 15 6 6 7 4 4 6 9 7 11 18 7 11 4 1 4 1 0 7 10 4 7 2 4 6 8 18 16 19 18 22 13 15 18
9 8 4 8 6 4 3 7 5 4 10 6 10 8 13 11 9 10 13 7 6 15 3 9 5 2 0 1 5 3 4 5 1 7 10 7 9 15 8 20 18 19 21 23 18
6 6 2 9 5 3 9 10 6 6 7 9 9 7 6 10 12 9 7 4 6 9 4 9 3 1 2 11 14 6 6 1 3 4 7 10 11 14 23 14 9 9 13 19 16
8 6 0 3 11 5 10 7 4 5 7 5 4 5 11 14 12 9 12 8 11 18 13 8 6 7 5 1 1 1 7 11 9 9 7 3 22 5 15 8 8 12 9 7 13
9 4 1 2 14 12 4 6 4 6 9 9 10 8 5 12 6 12 11 1 17 16 18 17 6 4 1 1 2 9 10 7 4 2 20 13 18 4 10 14 15 15 11 12 11
7 8 3 5 1 8 9 8 11 8 6 6 5 6 7 8 9 8 11 3 12 12 3 11 10 12 22 5 10 8 15 18 15 15 13 36 35 8 11 16 15 14 16 14 14
9 10 9 13 16 14 14 9 20 15 10 10 7 15 13 11 10 9 6 4 3 5 2 12 11 11 11 5 8 10 12 27 31 36 22 45 33 33 28 23 22 15 11 15 18
13 8 2 5 10 27 18 18 21 18 14 12 18 15 17 26 22 15 15 9 10 6 10 3 6 7 16 6 10 20 29 28 34 26 39 44 44 16 11 20 26 27 25 22 23
11 6 10 14 13 19 22 29 30 23 15 25 28 18 25 34 25 12 11 7 12 19 22 12 12 6 37 8 6 16 44 33 31 32 34 37 62 5 19 29 33 28 30 32 25
Wind_Direction
160 160 141 146 128 127 123 129 91 98 84 51 35 30 21 27 55 41 47 336 329 329 336 43 47 32 47 67 42 105 90 153 173 170 158 164 152 205 90 129 127 142 138 348 141
136 131 152 154 149 155 163 138 89 92 77 19 16 10 7 20 72 60 332 342 331 336 33 82 71 44 62 46 24 68 117 162 174 156 163 163 159 160 154 161 197 196 66 130 147
115 121 149 149 149 152 171 154 108 73 18 346 354 352 347 17 96 359 337 339 332 328 119 92 92 71 75 41 13 40 110 147 96 118 138 147 146 158 152 216 222 203 175 160 163
89 119 123 143 110 162 156 185 166 340 338 338 340 341 336 66 174 304 337 338 336 168 116 90 66 74 77 89 22 97 58 88 122 108 125 153 136 187 204 202 275 205 164 167 173
187 210 152 146 198 160 155 173 184 288 331 335 339 336 3 65 62 311 335 345 6 64 71 111 95 117 111 102 84 87 124 67 92 94 96 128 150 218 243 230 308 159 163 175 180
183 192 211 200 204 176 158 157 164 12 335 336 342 340 14 146 304 320 335 3 27 62 63 60 126 119 96 70 62 103 105 107 59 81 82 158 182 243 281 166 162 167 180 184 185
154 219 225 220 203 181 148 162 154 64 347 344 349 31 61 136 316 330 2 13 9 65 95 61 120 80 129 102 142 130 95 89 47 45 82 52 252 232 195 161 170 180 185 193 200
247 249 221 239 212 151 145 180 131 342 325 330 347 50 99 291 302 10 355 33 29 46 89 92 93 92 69 124 70 87 84 145 339 87 40 101 261 278 173 171 185 190 194 198 206
217 212 205 210 173 145 173 169 174 246 308 343 37 65 131 322 52 332 28 42 3 51 60 80 69 88 108 121 96 40 178 174 184 41 326 189 263 202 183 190 202 204 210 213 211
185 190 191 184 184 168 154 131 114 11 331 31 61 74 66 163 354 334 351 39 71 79 66 46 63 100 99 156 198 185 175 174 189 204 222 234 255 255 205 206 218 219 218 216 216
156 180 191 184 179 171 125 116 92 63 43 66 105 104 127 101 25 26 2 14 58 61 137 24 142 187 180 137 113 128 129 148 153 354 247 245 265 263 238 227 234 231 224 219 218
160 168 189 176 182 129 98 134 178 135 130 47 90 80 105 197 106 7 0 117 98 141 112 98 179 143 115 108 114 112 137 161 140 235 260 302 279 270 244 233 228 227 226 221 209
163 163 163 168 135 111 171 237 156 175 97 130 63 120 145 102 95 21 9 92 105 126 142 161 151 140 127 126 138 79 168 177 181 179 50 325 282 267 243 241 247 234 230 225 212
166 172 161 144 133 152 231 266 142 147 95 178 191 347 71 130 63 331 3 97 66 149 123 100 150 152 135 144 143 185 160 122 110 157 247 8 284 274 253 265 245 240 225 223 211
189 180 167 159 146 163 207 169 157 100 231 118 149 29 67 115 120 21 353 41 135 130 159 175 157 150 153 149 107 161 144 115 103 113 345 246 258 262 332 260 259 227 225 220 209
217 184 140 107 118 160 151 141 103 148 242 165 121 156 121 52 54 29 70 53 120 89 56 94 51 52 112 68 61 137 100 65 62 74 256 207 214 257 210 228 250 235 235 225 207
219 170 157 138 172 163 145 117 131 208 127 177 164 168 131 142 119 104 158 165 165 150 173 89 57 70 127 96 36 61 137 215 254 205 243 1 219 252 253 233 233 234 295 221 202
164 136 112 109 145 145 113 103 188 217 188 122 124 137 178 155 160 148 149 201 224 134 137 175 209 178 116 160 185 183 179 186 221 216 244 17 229 244 249 256 251 250 265 261 212
126 114 139 178 149 102 129 189 209 203 157 151 125 155 196 185 170 168 197 213 208 188 194 170 174 10 44 72 76 185 211 141 99 80 289 227 269 291 271 263 248 245 242 240 226
141 151 194 163 149 102 148 229 226 163 131 162 188 180 185 184 179 190 190 207 202 190 162 183 127 12 139 110 50 177 136 142 192 220 242 250 260 229 223 230 243 249 240 238 228
128 168 168 165 122 133 204 216 238 203 154 174 200 165 184 180 186 190 201 227 187 163 115 149 146 108 147 206 191 153 187 106 157 190 234 267 252 221 229 222 216 245 254 235 226
155 185 336 149 169 192 200 202 213 184 193 196 153 160 184 173 180 209 216 230 172 152 176 181 115 169 195 299 242 187 210 182 208 226 223 248 254 223 224 248 241 257 271 250 231
166 130 69 359 191 205 227 225 236 186 189 186 204 200 167 177 198 204 200 237 170 174 161 173 190 165 296 3 298 217 206 200 127 83 232 239 259 204 228 244 242 248 248 251 246
153 158 142 224 180 197 179 209 219 221 215 183 175 133 153 189 220 201 211 185 195 199 235 172 175 200 229 210 140 193 210 207 199 226 226 236 259 239 236 243 253 249 235 236 238
179 210 180 193 217 202 186 201 208 215 212 197 211 205 186 206 205 208 193 185 187 222 255 188 240 214 236 177 176 206 209 203 209 223 222 257 246 245 236 234 237 248 243 227 229
172 167 176 194 174 191 203 215 203 207 185 211 223 208 199 228 215 214 188 201 204 178 190 196 237 197 259 182 215 257 245 219 217 225 236 250 263 239 230 246 251 252 257 247 240
193 154 168 195 174 182 212 213 210 205 223 221 215 211 209 228 229 234 187 202 235 220 196 193 203 198 262 164 165 268 246 225 227 225 225 239 248 202 240 244 247 243 236 245 242